Regional Weather Roundup
Issued by NWS

Home | Current Version | Previous Version | Graphics & Text | Print | Product List | Glossary On
Versions: 1 2 3 4 5 6 7 8 9 10 11 12 13 14 15 16 17 18 19 20 21 22 23 24 25 26 27 28 29 30 31 32 33 34 35 36 37 38 39 40 41 42 43 44 45 46 47 48 49 50
000
ASUS43 KFSD 022102
RWRSD

WEATHER ROUNDUP FOR SOUTH DAKOTA
NATIONAL WEATHER SERVICE SIOUX FALLS SD
400 PM CDT THU JUL 02 2015

NOTE: "FAIR" INDICATES FEW OR NO CLOUDS BELOW 12,000 FEET WITH NO
SIGNIFICANT WEATHER AND/OR OBSTRUCTIONS TO VISIBILITY.


SDZ001>005-009-010-012>017-022200-
NORTHWEST AND NORTH CENTRAL SOUTH DAKOTA

CITY           SKY/WX    TMP DP  RH WIND       PRES   REMARKS
BUFFALO          N/A     79  56  45 N16G24    30.01S
FAITH            N/A     78  56  46 N10       30.02F
MOBRIDGE       MOSUNNY   78  65  63 VRB3      29.95F HAZE
$$

SDZ012>016-024>037-041>051-057-063-072>074-022200-
SOUTHWEST AND SOUTH CENTRAL SOUTH DAKOTA

CITY           SKY/WX    TMP DP  RH WIND       PRES   REMARKS
RAPID CTY ARPT SUNNY     80  56  43 NW18G29   30.07F
PIERRE         MOSUNNY   77  65  66 NE9       29.96F
CUSTER         PTSUNNY   72  47  40 N9G20     30.20S
ELLSWORTH AFB  MOSUNNY   79  56  45 NW18G24   30.06F
PHILIP         MOSUNNY   81  61  50 N14       30.00F
PINE RIDGE     SUNNY     79  58  48 N12       30.07F
WINNER           N/A     79  59  50 N12       29.99
$$

SDZ004>011-016>023-039-040-022200-
NORTHEAST SOUTH DAKOTA

CITY           SKY/WX    TMP DP  RH WIND       PRES   REMARKS
ABERDEEN       MOSUNNY   71  64  78 S10       29.97F
WATERTOWN      CLOUDY    73  49  42 S6        30.00S
BROOKINGS      CLOUDY    70  48  46 S5        30.03R
SISSETON         N/A     75  54  47 VRB7      29.97S
$$

SDZ017-020-022-023-036>040-048>070-022200-
SOUTHEAST SOUTH DAKOTA

CITY           SKY/WX    TMP DP  RH WIND       PRES   REMARKS
SIOUX FALLS    CLOUDY    70  58  65 E7        30.00S
HURON          CLOUDY    69  59  70 SE6       29.98F
CHAMBERLAIN    PTSUNNY   72  65  79 E8        29.98S
MITCHELL       CLOUDY    69  62  78 E8        29.99S
YANKTON        PTSUNNY   68  63  83 E10       29.97S
$$

ABBREVIATIONS USED IN REMARKS
   TC - TEMPERATURE IN CELSIUS
  WCI - WIND CHILL INDEX
   HX - HEAT INDEX
  VSB - VISIBILITY




USA.gov is the U.S. government's official web portal to all federal, state and local government web resources and services.